sat.trackr.live / text

‹ back to catalog

STARLINK-30877

NORAD 58242 · 2023-171N

PAYLOAD ACTIVE UNKNOWN

§ Identity

Operator
Country
US
Launch date
2023-11-08
Launch site
AFETR
Launch vehicle
Mass (kg)
RCS (m²)

Purposes: comms

External: N2YO · Heavens-Above · Gunter

§ Orbital elements

Epoch: 2026-05-25T04:13:38.997984Z

Period
94.27 min
Inclination
43.0037°
Eccentricity
0.0001988
Mean motion
15.27588011 rev/d
Perigee alt
481.7 km
Apogee alt
484.4 km
Semi-major
6,861.2 km
B*
8.8345e-6
RAAN
213.1362°
Arg perigee
275.4319°
Mean anomaly
84.6306°
Rev number
14,143

§ Raw data

STARLINK-308771 58242U 23171N   26145.17614581 -.00000019  00000+0  88345-5 0  99992 58242  43.0037 213.1362 0001988 275.4319  84.6306 15.27588011141433

JSON: /api/v1/satellites/58242 · /tle

For live sub-satellite position, see the globe view (requires WebGL).

§ Visibility from observer

Set your observer location to see the next 7 days of passes ≥ 10°. The values pass through the URL so the page stays shareable.

No JS? Fill the form by hand. The geolocation button needs JavaScript.